PBO Station Position Time Series. Reference Frame : NAM14
Format Version,1.1.0
4-character ID,HOYN
Station name,MoDOT_Eldon
Begin Date, 2010-03-12
End Date, 2016-05-17
Release Date, 2019-08-30
Reference position, 12.5987322171 North Latitude, -86.8281057973 East Longitude, 764.95104 meters elevation,
Date, North (mm), East (mm), Vertical (mm), North Std. Deviation (mm), East Std. Deviation (mm),              Vertical Std. Deviation (mm), Quality,
2010-03-12,0.00, 0.00, 0.00, 2.03, 2.22, 10.38, repro,
2010-03-13,-1.73, -3.59, 18.51, 1.97, 2.14, 9.71, repro,
2010-03-14,1.54, -0.37, -10.88, 2.01, 2.17, 9.87, repro,
2010-03-15,0.29, 0.41, 6.21, 1.99, 2.20, 9.99, repro,
2010-03-16,-1.82, -0.75, 24.65, 2.04, 2.25, 10.20, repro,
2010-03-17,0.95, 0.85, 29.07, 2.33, 2.38, 11.89, repro,
2010-03-18,-4.25, 2.69, 16.92, 2.13, 2.27, 10.97, repro,
2010-03-19,-1.38, 0.99, 7.16, 2.01, 2.17, 9.87, repro,
2010-03-20,-1.85, -3.40, -4.61, 2.00, 2.17, 9.79, repro,
2010-03-21,-0.17, -1.99, 8.81, 2.03, 2.19, 10.34, repro,
2010-03-22,-1.60, -3.81, 15.16, 2.06, 2.31, 10.63, repro,
2010-03-23,-1.16, -2.36, 31.32, 1.98, 2.16, 9.85, repro,
2010-03-24,-0.95, -2.91, -15.74, 2.07, 2.43, 10.55, repro,
2010-03-25,-1.53, -1.98, -5.93, 2.04, 2.29, 10.02, repro,
2010-03-26,0.58, -1.93, 12.89, 2.03, 2.24, 9.94, repro,
2010-03-27,0.62, -1.61, 12.19, 2.01, 2.23, 9.97, repro,
2010-03-28,2.47, -2.83, 1.18, 2.08, 2.36, 10.93, repro,
2010-03-29,0.82, -2.27, -13.09, 2.18, 2.47, 10.93, repro,
2010-03-30,-1.47, -3.12, 3.70, 2.15, 2.48, 11.32, repro,
2010-03-31,4.26, -5.94, -3.83, 2.07, 2.31, 10.35, repro,
2010-04-01,2.97, -3.20, -8.44, 2.02, 2.26, 10.03, repro,
2010-04-02,0.09, -2.36, 22.87, 2.11, 2.30, 10.24, repro,
2010-04-03,2.01, 1.16, 4.45, 2.02, 2.32, 10.37, repro,
2010-04-04,-1.47, -2.68, 20.52, 2.21, 2.44, 11.01, repro,
2010-04-05,0.44, 1.28, 10.04, 2.13, 2.34, 10.54, repro,
2010-04-06,-0.89, -0.08, 5.47, 2.09, 2.29, 10.29, repro,
2010-04-07,1.47, 1.14, 15.03, 2.12, 2.32, 10.19, repro,
2010-04-08,0.34, 0.38, 2.52, 2.15, 2.32, 10.57, repro,
2010-04-09,5.05, -0.23, -0.88, 2.13, 2.49, 10.69, repro,
2010-04-10,0.61, -0.34, -3.10, 2.15, 2.48, 10.58, repro,
2010-04-11,-1.77, -4.72, 5.35, 2.05, 2.25, 10.08, repro,
2010-04-12,-1.44, 0.19, 14.63, 2.19, 2.39, 10.84, repro,
2010-04-13,-1.47, -2.47, -2.99, 2.15, 2.28, 10.52, repro,
2010-04-14,-0.89, 0.06, -2.04, 2.09, 2.30, 10.37, repro,
2010-04-15,-1.54, 0.54, 11.18, 2.07, 2.34, 10.31, repro,
2010-04-16,-1.60, 1.08, 21.82, 2.08, 2.28, 10.23, repro,
2010-04-17,-0.83, -1.26, 11.19, 2.01, 2.22, 9.85, repro,
2010-04-18,-1.04, -0.91, 17.76, 2.00, 2.20, 9.89, repro,
2010-04-19,0.25, -0.47, 3.83, 2.08, 2.24, 9.99, repro,
2010-04-20,2.76, -0.29, -8.26, 2.18, 2.34, 10.96, repro,
2010-04-21,0.35, -2.07, 1.52, 2.08, 2.29, 10.28, repro,
2010-04-22,3.09, -0.29, 0.16, 2.05, 2.27, 10.08, repro,
2010-04-23,2.45, 1.90, -9.85, 2.14, 2.35, 10.95, repro,
2010-04-24,-2.24, -1.46, 19.90, 2.40, 2.77, 11.86, repro,
2010-04-25,-0.03, 0.67, 26.65, 2.04, 2.30, 10.09, repro,
2010-04-26,4.23, 2.62, 5.21, 2.17, 2.43, 11.39, repro,
2010-04-27,0.32, 0.39, -2.71, 2.07, 2.38, 10.31, repro,
2010-04-28,1.07, -1.73, 23.62, 2.09, 2.33, 10.44, repro,
2010-04-29,2.02, -1.13, 6.80, 2.29, 2.50, 11.52, repro,
2010-04-30,-0.67, -0.95, 26.55, 2.15, 2.29, 11.17, repro,
2010-05-01,2.02, 1.47, 4.67, 2.08, 2.25, 10.26, repro,
2010-05-02,2.97, -0.08, 8.37, 2.07, 2.23, 10.16, repro,
2010-05-03,1.24, 2.05, 9.77, 2.16, 2.31, 10.95, repro,
2010-05-04,-2.76, -6.99, -15.26, 2.09, 2.27, 10.60, repro,
2010-05-05,-3.83, -3.44, -10.31, 2.04, 2.22, 10.06, repro,
2010-05-06,0.26, 0.92, -6.29, 2.08, 2.26, 10.45, repro,
2010-05-07,-1.41, -5.15, -5.94, 2.09, 2.28, 10.42, repro,
2010-05-08,-4.47, -3.11, -10.31, 2.03, 2.20, 9.92, repro,
2010-05-09,-5.66, -4.83, 1.02, 2.01, 2.19, 9.83, repro,
2010-05-10,-1.20, -4.22, -25.64, 2.16, 2.31, 11.15, repro,
2010-05-11,-3.47, -7.13, -24.42, 2.12, 2.25, 10.39, repro,
2010-05-12,-2.14, 0.44, 25.59, 2.11, 2.23, 10.31, repro,
2010-05-13,-3.43, -3.66, 2.02, 2.15, 2.30, 10.62, repro,
2010-05-14,-4.79, -3.04, 1.57, 2.23, 2.36, 11.25, repro,
2010-05-15,-2.90, -1.15, 3.72, 2.26, 2.38, 10.98, repro,
2010-05-16,-1.12, 1.51, -10.26, 2.12, 2.28, 10.08, repro,
2010-05-17,0.80, -3.42, -18.87, 2.18, 2.32, 10.60, repro,
2010-05-18,0.63, -0.30, 1.48, 2.35, 2.51, 11.30, repro,
2010-05-19,0.97, -1.66, 3.23, 2.31, 2.51, 11.85, repro,
2010-05-20,0.48, 4.70, 3.24, 2.48, 2.62, 12.96, repro,
2010-05-21,-3.74, 2.55, 9.48, 2.14, 2.30, 10.68, repro,
2010-05-22,-0.01, 1.71, 3.67, 2.33, 2.34, 11.50, repro,
2010-05-23,-3.64, 0.76, 19.51, 2.20, 2.32, 10.88, repro,
2010-05-24,-4.15, -3.55, 7.85, 2.19, 2.29, 10.87, repro,
2010-05-25,-2.74, 3.42, 3.45, 2.16, 2.28, 10.88, repro,
2010-05-26,6.19, 8.97, -18.62, 2.26, 2.45, 11.27, repro,
2010-05-27,2.45, 4.24, -23.60, 2.28, 2.35, 11.51, repro,
2010-05-28,2.90, 5.87, -4.57, 2.37, 2.39, 12.17, repro,
2010-05-29,7.07, 3.86, -15.01, 2.18, 2.46, 11.02, repro,
2010-05-30,-1.74, 0.86, 18.82, 2.28, 2.40, 11.46, repro,
2010-05-31,-5.18, 2.70, 15.58, 2.34, 2.40, 11.98, repro,
2010-06-01,-2.30, 2.37, -0.86, 2.15, 2.39, 10.73, repro,
2010-06-02,-2.56, 1.11, 6.96, 2.16, 2.30, 10.94, repro,
2010-06-03,-6.97, 0.84, 13.17, 2.52, 2.87, 13.00, repro,
2010-06-04,-0.73, 0.78, -3.92, 2.25, 2.36, 11.30, repro,
2010-06-05,-2.24, -2.42, -6.62, 2.22, 2.28, 11.13, repro,
2010-06-06,-0.89, -2.05, -39.53, 2.11, 2.25, 10.75, repro,
2010-06-07,-3.86, 0.96, -15.85, 2.17, 2.28, 11.06, repro,
2010-06-08,-0.59, 2.74, -20.48, 2.21, 2.40, 11.31, repro,
2010-06-09,-3.79, 4.12, 9.06, 2.33, 2.31, 11.61, repro,
2010-06-10,-0.51, -1.67, -22.31, 2.19, 2.32, 11.27, repro,
2010-06-11,-4.25, -3.26, 1.21, 2.23, 2.29, 11.22, repro,
2010-06-12,-0.67, 1.20, -23.93, 2.08, 2.20, 10.48, repro,
2010-06-13,-1.78, 2.49, -14.40, 2.25, 2.30, 11.30, repro,
2010-06-14,-2.65, -0.43, -0.60, 2.21, 2.32, 11.31, repro,
2010-06-15,-3.54, -0.24, -2.81, 2.21, 2.34, 11.19, repro,
2010-06-16,-2.16, -1.83, -14.40, 2.18, 2.25, 10.84, repro,
2010-06-17,-6.01, -4.80, -8.18, 2.20, 2.29, 11.02, repro,
2010-06-18,-0.48, 1.20, -44.24, 2.17, 2.33, 11.17, repro,
2010-06-19,-0.41, -0.48, -21.86, 2.16, 2.30, 11.32, repro,
2010-06-20,-6.21, -1.00, -11.61, 2.09, 2.21, 10.43, repro,
2010-06-21,-2.04, 0.39, -18.40, 2.18, 2.29, 11.34, repro,
2010-06-22,-3.21, 2.95, -3.91, 2.36, 2.42, 12.00, repro,
2010-06-23,-2.95, 1.96, -17.14, 2.17, 2.27, 11.13, repro,
2010-06-24,-1.93, -1.03, -8.28, 2.41, 2.62, 12.66, repro,
2010-06-25,2.25, 7.17, -29.96, 2.26, 2.38, 11.98, repro,
2010-06-26,-6.92, 4.67, 11.06, 2.26, 2.35, 11.59, repro,
2010-06-27,-2.38, 3.43, 16.49, 2.38, 2.46, 12.61, repro,
2010-06-28,-2.84, 2.99, -12.38, 2.34, 2.41, 12.46, repro,
2010-06-29,1.70, -1.12, -34.20, 2.15, 2.28, 10.83, repro,
2010-06-30,-3.75, -0.49, -8.85, 2.27, 2.33, 11.49, repro,
2010-07-01,3.45, 0.10, -40.76, 2.12, 2.26, 10.81, repro,
2010-07-02,3.01, -1.57, -35.36, 2.27, 2.34, 11.19, repro,
2010-07-03,4.54, 0.13, -30.70, 2.36, 2.43, 12.38, repro,
2010-07-04,2.56, -1.08, -57.20, 2.32, 2.35, 11.93, repro,
2010-07-05,1.07, 5.87, -18.06, 2.29, 2.37, 12.28, repro,
2010-07-06,-3.17, 3.24, 10.00, 2.26, 2.32, 11.25, repro,
2010-07-07,0.79, 3.52, -8.13, 2.13, 2.20, 10.72, repro,
2010-07-08,2.99, -1.13, -32.27, 2.22, 2.34, 11.20, repro,
2010-07-09,1.67, -0.53, -23.11, 2.15, 2.24, 10.77, repro,
2010-07-10,-1.60, -2.22, -18.44, 2.18, 2.19, 10.85, repro,
2010-07-11,1.86, -0.36, -22.76, 2.19, 2.21, 10.97, repro,
2010-07-12,0.53, 1.42, -15.20, 2.17, 2.28, 11.12, repro,
2010-07-13,4.53, 4.52, -20.88, 2.32, 2.37, 11.43, repro,
2010-07-14,0.35, -1.81, -31.43, 2.24, 2.31, 11.38, repro,
2010-07-15,-1.19, -1.66, -31.13, 2.25, 2.34, 11.64, repro,
2010-07-16,0.96, -2.53, -20.02, 2.34, 2.34, 11.93, repro,
2010-07-17,2.58, 0.28, -14.30, 2.37, 2.34, 12.27, repro,
2010-07-18,-1.42, -0.90, -6.22, 2.37, 2.44, 12.49, repro,
2010-07-19,-1.87, -0.34, -16.04, 2.25, 2.24, 11.50, repro,
2010-07-20,-2.28, 0.97, -9.93, 2.27, 2.21, 11.56, repro,
2010-07-21,-4.18, 2.41, 1.78, 2.31, 2.32, 12.08, repro,
2010-07-22,-1.26, 0.31, -11.96, 2.20, 2.20, 11.14, repro,
2010-07-23,-3.98, 2.83, 1.26, 2.35, 2.33, 11.67, repro,
2010-07-24,-2.18, -1.90, -18.01, 2.18, 2.17, 10.98, repro,
2010-07-25,0.56, -3.19, -31.22, 2.21, 2.23, 11.22, repro,
2010-07-26,-1.80, -0.41, -11.03, 2.25, 2.21, 11.43, repro,
2010-07-27,-1.76, -0.33, -17.54, 2.23, 2.23, 11.37, repro,
2010-07-28,-2.31, 0.33, -3.14, 2.34, 2.27, 11.97, repro,
2010-07-29,0.79, -2.18, -7.73, 2.61, 2.66, 13.59, repro,
2010-07-30,-1.22, 1.12, -8.02, 2.26, 2.21, 11.38, repro,
2010-07-31,-0.51, 1.09, -22.95, 2.34, 2.34, 12.51, repro,
2010-08-01,-6.10, 1.20, -6.34, 2.33, 2.41, 12.01, repro,
2010-08-02,2.27, 0.55, -36.38, 2.18, 2.21, 11.05, repro,
2010-08-03,-4.49, 3.91, -7.06, 2.20, 2.21, 11.10, repro,
2010-08-04,-2.43, 2.90, -6.34, 2.48, 2.50, 12.50, repro,
2010-08-05,-0.56, -2.63, -16.58, 2.53, 2.37, 12.60, repro,
2010-08-06,0.57, -0.38, -19.91, 2.26, 2.26, 11.32, repro,
2010-08-07,6.05, 1.52, -14.55, 2.29, 2.28, 11.62, repro,
2010-08-08,5.15, -1.98, -31.41, 2.33, 2.39, 12.58, repro,
2010-08-09,2.79, -0.26, -20.40, 2.71, 2.83, 14.08, repro,
2010-08-10,-3.47, 2.02, -3.06, 2.19, 2.21, 11.24, repro,
2010-08-11,2.19, 2.77, -27.80, 2.34, 2.30, 11.81, repro,
2010-08-12,5.56, 0.37, -14.48, 2.30, 2.23, 11.87, repro,
2010-08-13,2.74, 2.41, -3.26, 2.23, 2.29, 11.48, repro,
2010-08-14,-0.08, 1.11, -14.05, 2.36, 2.34, 12.76, repro,
2010-08-15,5.57, 5.50, -48.31, 2.33, 2.25, 12.32, repro,
2010-08-16,7.52, 2.75, -51.17, 2.39, 2.37, 12.90, repro,
2010-08-17,2.99, 4.44, -24.72, 2.31, 2.33, 12.45, repro,
2010-08-18,-0.13, 1.33, -15.96, 2.23, 2.19, 11.08, repro,
2010-08-19,1.74, -0.36, -27.45, 2.33, 2.31, 11.98, repro,
2010-08-20,3.49, 2.76, -10.15, 2.34, 2.33, 12.09, repro,
2010-08-21,4.61, 2.89, -18.50, 2.24, 2.29, 11.77, repro,
2010-08-22,1.83, 3.22, -22.36, 2.29, 2.37, 11.94, repro,
2010-08-23,6.32, 2.71, -21.96, 2.24, 2.25, 11.37, repro,
2010-08-24,-0.56, 3.26, -26.84, 2.33, 2.39, 11.79, repro,
2010-08-25,-2.52, -0.09, -12.87, 2.27, 2.28, 11.48, repro,
2010-08-26,0.99, 0.45, -16.39, 2.30, 2.38, 11.82, repro,
2010-08-27,1.83, 3.23, -4.08, 2.24, 2.25, 11.25, repro,
2010-08-28,2.87, 0.10, -18.82, 2.20, 2.21, 11.21, repro,
2010-08-29,1.60, 5.40, -12.09, 2.29, 2.33, 12.10, repro,
2010-08-30,5.17, 0.32, -25.45, 2.34, 2.29, 12.37, repro,
2010-08-31,1.02, -1.24, -33.05, 2.20, 2.18, 11.08, repro,
2010-09-01,1.00, -1.75, -18.85, 2.25, 2.19, 11.70, repro,
2010-09-02,0.51, 4.05, -14.94, 2.26, 2.25, 11.94, repro,
2010-09-03,3.85, 1.50, -34.60, 2.30, 2.25, 11.34, repro,
2010-09-04,3.32, 0.59, -34.21, 2.15, 2.17, 10.89, repro,
2010-09-05,2.35, 2.80, -20.20, 2.22, 2.19, 11.59, repro,
2010-09-06,0.92, 2.42, -1.21, 2.13, 2.12, 10.64, repro,
2010-09-07,1.20, 2.27, -24.89, 2.22, 2.20, 11.78, repro,
2010-09-08,1.40, 2.52, -27.97, 2.18, 2.19, 11.05, repro,
2010-09-09,1.52, 1.19, -20.56, 2.24, 2.26, 10.96, repro,
2010-09-10,0.21, 3.12, -21.21, 2.52, 2.44, 12.99, repro,
2010-09-11,4.50, 3.10, -36.41, 3.08, 2.92, 16.49, repro,
2010-09-12,0.65, 3.14, -15.41, 2.39, 2.34, 12.84, repro,
2010-09-13,1.74, 8.61, -30.48, 2.30, 2.33, 11.46, repro,
2010-09-14,1.46, 1.27, -12.73, 2.38, 2.32, 12.51, repro,
2010-09-15,3.14, -0.12, -38.43, 2.39, 2.35, 12.84, repro,
2010-09-16,2.04, 1.70, -33.28, 2.22, 2.18, 11.70, repro,
2010-09-17,-1.11, 0.20, -26.21, 2.31, 2.34, 12.06, repro,
2010-09-18,0.99, 4.93, -19.55, 2.37, 2.33, 12.12, repro,
2010-09-19,4.44, -2.85, -26.31, 2.50, 2.50, 13.08, repro,
2010-09-20,1.85, 0.59, -35.75, 2.36, 2.31, 12.19, repro,
2010-09-21,3.47, 2.63, -44.38, 2.46, 2.37, 12.26, repro,
2010-09-22,-0.46, -5.12, -41.55, 2.42, 2.37, 12.94, repro,
2010-09-23,6.17, -0.75, -21.61, 2.42, 2.44, 12.97, repro,
2010-09-24,3.49, 1.40, -26.57, 2.34, 2.30, 12.55, repro,
2010-09-25,7.46, -5.71, -57.97, 2.27, 2.25, 11.32, repro,
2010-09-26,8.29, -1.51, -61.98, 2.53, 2.44, 13.88, repro,
2010-09-27,10.57, 1.54, -72.35, 2.62, 2.48, 14.12, repro,
2010-09-28,7.24, 7.15, -112.91, 3.16, 3.10, 17.17, repro,
2010-09-29,-0.66, 0.61, -30.26, 2.34, 2.36, 12.48, repro,
2010-09-30,2.10, -0.34, -51.84, 2.34, 2.35, 12.34, repro,
2010-10-01,-0.74, 1.19, -27.42, 2.24, 2.24, 11.73, repro,
2010-10-02,-2.95, -0.18, -19.49, 2.32, 2.24, 11.93, repro,
2010-10-03,-2.29, 0.27, -31.39, 2.30, 2.32, 12.52, repro,
2010-10-04,-0.06, -2.42, -49.43, 2.27, 2.29, 12.07, repro,
2010-10-05,1.04, -1.99, -41.70, 2.25, 2.21, 11.69, repro,
2010-10-06,-2.02, 1.28, -29.45, 2.23, 2.22, 11.70, repro,
2010-10-07,2.50, -5.08, -30.45, 2.18, 2.17, 11.30, repro,
2010-10-08,-3.32, -2.49, -24.72, 2.56, 2.67, 13.49, repro,
2010-10-09,-2.42, -1.48, -33.01, 2.32, 2.34, 12.32, repro,
2010-10-10,2.67, -3.27, -43.70, 2.25, 2.29, 11.74, repro,
2010-10-11,0.00, 0.86, -26.46, 2.30, 2.32, 12.23, repro,
2010-10-12,1.35, 2.14, -42.95, 2.34, 2.27, 12.11, repro,
2010-10-13,-2.35, -0.94, -35.44, 2.23, 2.20, 11.67, repro,
2010-10-14,-1.94, -1.53, -47.14, 2.27, 2.26, 11.87, repro,
2010-10-15,-5.80, 0.90, -31.83, 2.22, 2.23, 11.59, repro,
2010-10-16,-2.64, -2.06, -26.46, 2.21, 2.19, 11.49, repro,
2010-10-17,1.81, -1.33, -53.16, 2.28, 2.26, 11.93, repro,
2010-10-18,-2.56, 0.91, -37.97, 2.29, 2.35, 12.01, repro,
2010-10-19,2.36, 0.86, -41.99, 2.26, 2.28, 11.83, repro,
2010-10-20,0.99, 0.32, -49.69, 2.21, 2.27, 11.73, repro,
2010-10-21,3.18, -0.94, -50.79, 2.30, 2.35, 12.36, repro,
2010-10-22,3.10, -2.98, -26.25, 2.25, 2.31, 12.01, repro,
2010-10-23,4.09, -2.72, -35.18, 2.26, 2.32, 12.14, repro,
2010-10-24,5.69, -2.49, -59.26, 2.59, 2.94, 14.33, repro,
2010-10-25,0.56, -1.31, -40.74, 2.23, 2.26, 11.84, repro,
2010-10-26,2.66, -0.83, -39.10, 2.19, 2.18, 11.35, repro,
2010-10-27,4.50, 2.74, -14.56, 2.29, 2.29, 12.39, repro,
2010-10-28,3.76, 2.43, -33.39, 2.15, 2.20, 11.23, repro,
2010-10-29,0.40, 1.01, -39.96, 2.24, 2.23, 11.72, repro,
2010-10-30,-2.27, -4.66, -42.18, 2.19, 2.28, 11.86, repro,
2010-10-31,-0.29, -1.09, -49.24, 2.31, 2.27, 12.20, repro,
2010-11-01,-0.88, 1.59, -51.15, 2.22, 2.24, 11.74, repro,
2010-11-02,2.70, -1.36, -46.94, 2.24, 2.26, 11.99, repro,
2010-11-03,2.76, 0.84, -37.73, 2.24, 2.29, 12.17, repro,
2010-11-04,0.79, 2.81, -38.68, 2.32, 2.30, 12.46, repro,
2010-11-05,-1.52, -0.53, -35.31, 2.30, 2.36, 12.55, repro,
2010-11-06,-1.97, -1.96, -30.49, 2.21, 2.21, 11.79, repro,
2010-11-07,-0.59, -0.01, -36.56, 2.15, 2.21, 11.52, repro,
2010-11-08,-0.38, -1.29, -33.96, 2.24, 2.33, 12.23, repro,
2010-11-09,-3.29, 0.48, -44.33, 2.62, 2.75, 14.83, repro,
2010-11-10,1.62, 0.55, -50.75, 2.63, 2.79, 14.75, repro,
2010-11-11,-1.78, 0.00, -37.81, 2.16, 2.19, 11.48, repro,
2010-11-12,0.50, 2.09, -43.43, 2.17, 2.19, 11.47, repro,
2010-11-13,-0.72, 1.57, -37.19, 2.18, 2.19, 11.62, repro,
2010-11-14,-2.45, 1.53, -30.29, 2.32, 2.28, 12.78, repro,
2010-11-15,1.32, 4.57, -39.73, 2.28, 2.31, 12.49, repro,
2010-11-16,-0.92, 3.09, -38.46, 2.27, 2.29, 12.38, repro,
2010-11-17,-0.40, 2.15, -45.15, 2.26, 2.26, 12.41, repro,
2010-11-18,-1.20, -1.51, -40.08, 2.36, 2.38, 12.71, repro,
2010-11-19,3.22, 0.65, -74.93, 2.43, 2.57, 13.00, repro,
2010-11-20,1.23, 0.08, -59.45, 2.21, 2.24, 11.50, repro,
2010-11-21,3.25, -0.36, -43.61, 2.23, 2.23, 11.87, repro,
2010-11-22,0.63, -1.19, -52.90, 2.33, 2.26, 12.37, repro,
2010-11-23,-2.53, 1.65, -23.45, 2.17, 2.18, 11.37, repro,
2010-11-24,-1.36, -2.12, -50.91, 2.20, 2.28, 12.11, repro,
2010-11-25,-0.27, 2.55, -32.13, 2.22, 2.20, 11.94, repro,
2010-11-26,-0.86, 0.43, -42.90, 2.15, 2.27, 11.56, repro,
2010-11-27,0.44, 2.28, -42.54, 2.29, 2.29, 12.56, repro,
2010-11-28,0.33, -2.25, -49.21, 2.12, 2.17, 11.18, repro,
2010-11-29,1.45, 1.18, -42.42, 2.15, 2.19, 11.34, repro,
2010-11-30,-0.48, 1.87, -53.35, 2.14, 2.17, 11.24, repro,
2010-12-01,-3.67, -0.19, -45.35, 2.17, 2.18, 11.51, repro,
2010-12-02,-6.08, -4.61, -45.54, 2.74, 2.78, 15.01, repro,
2010-12-03,-6.34, -0.10, -28.11, 2.13, 2.15, 11.12, repro,
2010-12-04,-1.82, 1.67, -34.30, 2.16, 2.17, 11.29, repro,
2010-12-05,1.55, -6.68, -74.68, 2.21, 2.25, 11.68, repro,
2010-12-06,-1.34, -1.34, -49.70, 2.42, 2.59, 13.27, repro,
2010-12-07,-1.66, -2.79, -57.40, 2.56, 2.65, 13.39, repro,
2010-12-08,-0.57, 0.34, -47.15, 2.14, 2.16, 11.16, repro,
2010-12-09,-1.16, -2.09, -52.46, 2.20, 2.22, 11.65, repro,
2010-12-10,-1.41, 0.63, -35.09, 2.15, 2.16, 11.24, repro,
2010-12-11,2.88, -2.51, -56.80, 2.23, 2.33, 11.87, repro,
2010-12-12,0.99, 1.06, -50.50, 2.27, 2.37, 12.46, repro,
2010-12-13,0.65, -1.45, -53.76, 2.19, 2.36, 11.82, repro,
2010-12-14,-2.89, -0.38, -26.40, 2.36, 2.20, 12.05, repro,
2010-12-15,2.17, 1.18, -32.17, 2.71, 2.79, 14.38, repro,
2010-12-16,0.58, 1.86, -34.66, 2.35, 2.50, 12.72, repro,
2010-12-17,0.74, -1.92, -50.55, 2.20, 2.23, 11.44, repro,
2010-12-18,-3.45, -0.43, -39.69, 2.17, 2.19, 11.39, repro,
2010-12-19,0.51, 5.20, -40.72, 2.24, 2.21, 11.86, repro,
2010-12-20,-0.18, 0.73, -40.99, 2.20, 2.19, 11.43, repro,
2010-12-21,1.39, 1.28, -39.37, 2.27, 2.25, 11.56, repro,
2010-12-22,-0.47, -1.00, -47.37, 2.69, 2.87, 14.35, repro,
2010-12-23,-4.36, 0.53, -37.32, 2.22, 2.20, 11.60, repro,
2010-12-24,-3.62, -2.82, -41.89, 2.18, 2.20, 11.33, repro,
2010-12-25,-2.30, -0.90, -49.12, 2.17, 2.17, 11.31, repro,
2010-12-26,-2.88, 3.85, -36.17, 2.18, 2.13, 11.20, repro,
2010-12-27,-0.24, 0.05, -45.19, 2.19, 2.19, 11.33, repro,
2010-12-28,-1.22, 3.28, -31.68, 2.24, 2.29, 11.73, repro,
2010-12-29,-0.95, -1.42, -35.89, 2.29, 2.50, 12.39, repro,
2010-12-30,0.42, -1.05, -44.10, 2.28, 2.33, 12.05, repro,
2010-12-31,0.67, -6.12, -42.22, 2.35, 2.46, 12.56, repro,
2011-01-01,2.04, -0.64, -80.71, 2.31, 2.37, 12.24, repro,
2011-01-02,-0.07, -2.20, -64.29, 2.34, 2.20, 11.70, repro,
2011-01-03,-5.07, -7.09, -56.12, 2.24, 2.37, 12.11, repro,
2011-01-04,-0.48, -1.32, -52.55, 2.20, 2.25, 11.32, repro,
2011-01-05,-2.25, 0.64, -31.04, 2.19, 2.33, 11.63, repro,
2011-01-06,-0.35, -1.56, -46.60, 2.18, 2.23, 11.26, repro,
2011-01-07,-0.10, 0.83, -30.23, 2.24, 2.36, 12.03, repro,
2011-01-08,-2.61, 1.56, -35.51, 2.42, 2.37, 12.97, repro,
2011-01-09,0.71, -0.69, -52.45, 2.18, 2.30, 11.56, repro,
2011-01-10,0.97, -0.95, -42.91, 2.25, 2.26, 11.83, repro,
2011-01-11,-5.62, -2.24, -30.72, 2.26, 2.30, 12.00, repro,
2011-01-12,-4.12, -1.41, -37.22, 2.22, 2.29, 11.73, repro,
2011-01-13,-3.32, -4.72, -38.44, 2.14, 2.18, 11.02, repro,
2011-01-14,-3.10, -5.23, -56.60, 2.28, 2.34, 11.90, repro,
2011-01-15,-1.67, -0.97, -47.51, 2.20, 2.21, 11.41, repro,
2011-01-16,0.04, -1.06, -30.89, 2.17, 2.21, 11.31, repro,
2011-01-17,-0.19, -0.16, -31.68, 2.19, 2.23, 11.38, repro,
2011-01-18,0.48, 1.59, -33.32, 2.25, 2.26, 11.77, repro,
2011-01-19,-2.68, -2.75, -40.75, 2.17, 2.19, 11.48, repro,
2011-01-20,-1.85, -2.09, -48.64, 2.22, 2.25, 11.75, repro,
2011-01-21,-0.20, -4.96, -53.09, 2.32, 2.23, 11.77, repro,
2011-01-22,1.62, -2.73, -47.04, 2.20, 2.26, 11.34, repro,
2011-01-23,1.13, -2.48, -41.16, 2.22, 2.26, 11.61, repro,
2011-01-24,-1.88, -3.66, -29.93, 2.25, 2.28, 11.97, repro,
2011-01-25,-0.52, -1.69, -45.44, 2.37, 2.32, 12.57, repro,
2011-01-26,-0.76, -4.35, -59.47, 2.36, 2.39, 12.77, repro,
2011-01-27,-2.27, -5.13, -67.16, 2.29, 2.36, 11.84, repro,
2011-01-28,-0.66, -2.08, -39.09, 2.24, 2.25, 11.55, repro,
2011-01-29,0.62, -1.39, -39.37, 2.56, 2.75, 13.51, repro,
2011-01-30,-0.06, -4.93, -26.19, 2.21, 2.30, 11.78, repro,
2011-01-31,-0.06, -2.32, -52.47, 2.24, 2.25, 11.78, repro,
2011-02-01,-0.84, -1.09, -34.60, 2.58, 2.39, 13.52, repro,
2011-02-02,2.53, 1.93, -55.69, 2.20, 2.24, 11.56, repro,
2011-02-03,0.80, -3.46, -63.35, 2.24, 2.34, 11.89, repro,
2011-02-04,-4.28, -2.09, -41.21, 2.18, 2.32, 11.63, repro,
2011-02-05,-1.61, 0.29, -42.46, 2.23, 2.30, 11.94, repro,
2011-02-06,0.45, -0.98, -52.98, 2.26, 2.30, 11.73, repro,
2011-02-07,-0.69, 0.98, -38.23, 2.24, 2.31, 12.09, repro,
2011-02-08,1.44, -2.02, -36.79, 2.27, 2.26, 11.97, repro,
2011-02-09,-0.18, 0.67, -35.18, 2.23, 2.28, 11.96, repro,
2011-02-10,0.52, 0.47, -36.76, 2.23, 2.32, 12.05, repro,
2011-02-11,2.67, 0.90, -42.61, 2.20, 2.26, 11.65, repro,
2011-02-12,-1.54, -0.29, -33.87, 2.26, 2.31, 12.28, repro,
2011-02-13,1.71, 2.14, -24.78, 2.29, 2.26, 12.16, repro,
2011-02-14,-0.48, 0.04, -25.35, 2.22, 2.29, 11.92, repro,
2011-02-15,-2.22, -1.70, -37.57, 2.26, 2.23, 11.72, repro,
2011-02-16,-0.56, 1.73, -36.17, 2.36, 2.36, 12.44, repro,
2011-02-17,1.47, -0.70, -44.18, 2.21, 2.26, 11.83, repro,
2011-02-18,1.34, 0.95, -38.36, 2.50, 2.57, 12.80, repro,
2011-02-19,-2.73, 1.84, -37.38, 2.24, 2.21, 11.67, repro,
2011-02-20,-0.27, 1.74, -20.24, 2.15, 2.21, 11.22, repro,
2011-02-21,0.06, 3.43, -44.26, 2.24, 2.37, 12.28, repro,
2011-02-22,-2.27, 0.59, -27.80, 2.16, 2.30, 11.52, repro,
2011-02-23,-2.27, -1.31, -24.02, 2.36, 2.36, 12.49, repro,
2011-02-24,-2.73, -1.53, -2.01, 2.23, 2.27, 11.78, repro,
2011-02-25,0.26, -0.16, -33.95, 2.18, 2.21, 11.37, repro,
2011-02-26,-1.38, 3.56, -12.55, 2.22, 2.28, 11.75, repro,
2011-02-27,0.28, 2.36, -20.54, 2.16, 2.24, 11.57, repro,
2011-02-28,-0.60, -0.92, -27.58, 2.19, 2.25, 11.57, repro,
2011-03-01,-2.89, 0.79, -12.75, 2.29, 2.34, 11.94, repro,
2011-03-02,-3.37, 0.82, -27.21, 2.18, 2.23, 11.37, repro,
2011-03-03,-3.68, -5.91, -31.20, 2.24, 2.26, 11.83, repro,
2011-03-04,-3.70, -3.82, -45.13, 2.25, 2.39, 12.19, repro,
2011-03-05,-2.75, -3.40, -49.61, 2.22, 2.27, 11.92, repro,
2011-03-06,-1.82, 3.67, -16.04, 2.25, 2.27, 11.97, repro,
2011-03-07,-2.28, 2.12, -18.19, 2.16, 2.20, 11.13, repro,
2011-03-08,-2.01, 0.02, -32.62, 2.27, 2.30, 12.01, repro,
2011-03-09,-3.15, -2.66, -19.04, 2.21, 2.24, 11.55, repro,
2011-03-10,0.57, -0.27, -16.44, 2.21, 2.25, 11.60, repro,
2011-03-11,0.30, -2.61, -26.67, 2.20, 2.36, 11.88, repro,
2011-03-12,0.39, -1.61, -36.83, 2.16, 2.25, 11.42, repro,
2011-03-13,2.29, -0.28, -42.96, 2.19, 2.24, 11.55, repro,
2011-03-14,-1.84, 0.20, -32.00, 2.25, 2.39, 12.26, repro,
2011-03-15,0.50, 1.38, -29.64, 2.13, 2.23, 11.17, repro,
2011-03-16,2.81, 1.27, -35.10, 2.15, 2.36, 11.49, repro,
2011-03-17,-0.39, -0.47, -36.80, 2.28, 2.50, 12.36, repro,
2011-03-18,-5.10, -2.14, -48.39, 2.35, 2.50, 12.61, repro,
2011-03-19,-1.34, -4.04, -34.25, 2.29, 2.35, 12.25, repro,
2011-03-20,-4.29, -4.59, -37.36, 2.15, 2.29, 11.33, repro,
2011-03-21,-0.40, -0.29, -20.67, 2.21, 2.46, 12.08, repro,
2011-03-22,-2.95, 2.07, -34.99, 2.24, 2.50, 12.05, repro,
2011-03-23,-1.11, 1.20, -32.85, 2.30, 2.46, 12.10, repro,
2011-03-24,-3.81, 1.93, -26.13, 2.27, 2.35, 12.38, repro,
2011-03-25,-5.40, -1.54, -27.11, 2.26, 2.39, 12.18, repro,
2011-03-26,-1.57, 4.09, -36.71, 2.28, 2.41, 12.16, repro,
2011-03-27,-0.92, 2.27, -19.64, 2.24, 2.33, 12.10, repro,
2011-03-28,-1.24, -0.89, -29.65, 2.23, 2.38, 12.18, repro,
2011-03-29,-0.07, 0.08, -12.11, 2.26, 2.49, 12.60, repro,
2011-03-30,-1.22, -3.00, -27.58, 2.22, 2.35, 11.69, repro,
2011-03-31,-0.23, 0.91, -29.49, 2.31, 2.37, 12.05, repro,
2011-04-01,-0.91, 0.49, -11.37, 2.34, 2.38, 12.55, repro,
2011-04-02,-0.73, 0.41, -5.70, 2.24, 2.39, 11.95, repro,
2011-04-03,-4.06, -0.87, -13.81, 2.35, 2.47, 12.78, repro,
2011-04-04,-2.24, -0.28, -11.17, 2.24, 2.37, 12.28, repro,
2011-04-05,-1.38, -1.87, -23.66, 2.33, 2.55, 12.56, repro,
2011-04-06,-1.82, -0.53, -26.34, 2.29, 2.36, 12.11, repro,
2011-04-07,-6.94, -3.49, -22.87, 2.30, 2.31, 12.49, repro,
2011-04-08,-1.93, -2.25, -44.26, 2.59, 2.80, 13.92, repro,
2011-04-09,0.88, -2.05, -33.67, 2.24, 2.27, 11.96, repro,
2011-04-10,-1.53, -1.32, -21.83, 2.29, 2.44, 12.60, repro,
2011-04-11,-0.38, 0.46, -14.46, 2.23, 2.37, 11.83, repro,
2011-04-12,-1.47, 0.96, -13.04, 2.24, 2.43, 12.27, repro,
2011-04-13,-4.93, -2.88, -28.29, 2.22, 2.35, 11.34, repro,
2011-04-14,-3.70, -2.06, -14.17, 2.18, 2.24, 11.40, repro,
2011-04-15,-3.08, -1.24, -33.61, 2.21, 2.39, 11.84, repro,
2011-04-16,-2.01, -0.50, -37.89, 2.19, 2.25, 11.26, repro,
2011-04-17,-4.98, 1.03, -13.11, 2.15, 2.23, 11.30, repro,
2011-04-18,-3.14, 1.23, -5.50, 2.13, 2.22, 10.87, repro,
2011-04-19,-1.95, 0.60, -18.09, 2.20, 2.24, 11.74, repro,
2011-04-20,-3.29, 4.36, -24.81, 2.21, 2.29, 11.75, repro,
2011-04-21,-2.05, -0.54, -30.39, 2.32, 2.40, 12.43, repro,
2011-04-22,-3.97, -0.49, -15.65, 2.21, 2.24, 11.72, repro,